Regional Weather Roundup
Issued by NWS

Home | Current Version | Previous Version | Text Only | Print | Product List | Glossary Off
Versions: 1 2 3 4 5 6 7 8 9 10 11 12 13 14 15 16 17 18 19 20 21 22 23 24 25 26 27 28 29 30 31 32 33 34 35 36 37 38 39 40 41 42 43 44 45 46 47 48 49 50

000
ASUS43 KBIS 220210
RWRND

NORTH DAKOTA REGIONAL WEATHER ROUNDUP
NATIONAL WEATHER SERVICE BISMARCK ND
900 PM CDT TUE OCT 21 2014

NOTE: "FAIR" INDICATES FEW OR NO CLOUDS BELOW 12,000 FEET WITH NO
SIGNIFICANT WEATHER AND/OR OBSTRUCTIONS TO VISIBILITY.


NDZ001>003-009>011-017-220300-
NORTHWEST NORTH DAKOTA

CITY           SKY/WX    TMP DP  RH WIND       PRES   REMARKS
WILLISTON      PTCLDY    55  43  63 CALM      29.58R
MINOT          CLEAR     58  45  62 SE8       29.60S
MINOT AFB      CLEAR     53  47  80 SE8       29.59S
$$

NDZ018>021-031>035-040>046-220300-
SOUTHWEST NORTH DAKOTA

CITY           SKY/WX    TMP DP  RH WIND       PRES   REMARKS
BISMARCK       CLEAR     67  43  41 SE12      29.68R
DICKINSON      CLEAR     58  44  60 S9        29.61S
GARRISON         N/A     62  49  62 SE7       29.62S
HETTINGER ARPT PTCLDY    65  44  46 S10       29.66S
$$

NDZ004>008-012>016-024-026-027-054-220300-
NORTHEAST NORTH DAKOTA

CITY           SKY/WX    TMP DP  RH WIND       PRES   REMARKS
GRAND FORKS    CLEAR     57  41  55 S21G36    29.85S
GRND FRKS AFB  CLEAR     56  42  59 S20G30    29.84S
DEVILS LAKE    CLEAR     61  43  51 S24       29.74R
$$

NDZ022-023-025-028>030-036>039-047>053-220300-
SOUTHEAST NORTH DAKOTA

CITY           SKY/WX    TMP DP  RH WIND       PRES   REMARKS
FARGO          CLEAR     58  41  53 SE23G36   29.91R
JAMESTOWN      CLEAR     60  43  53 SE18G26   29.79R
$$




USA.gov is the U.S. government's official web portal to all federal, state and local government web resources and services.